^^
Datos históricos de la estación: Murcia-Puente Tocinos
Diario Informe para Junio 28, 2019 Unidades:  Métrico    Inglés   Ambas
Diario Semanal Mensual Anual Configurable
  Máximo: Mínimo: Media:
Temperatura: 34.3 °C 23.0 °C 28.6 °C
Punto de rocio: 17.2 °C 12.4 °C 15.2 °C
Humedad: 63% 27% 46%
Velocidad viento: 18.0km/h 0.0km/h 7.9km/h
Racha viento: 31.5km/h - -
Viento- - ESE
Presión: 1016.4 hPa 1012.7 hPa -
Precipitación: 0.0 mm    
Historical Graphs
 
 
Tabla de datos para Junio 28, 2019
Hora Temperatura Punto de rocio Presión Viento Velocidad viento Racha viento Humedad Intensidad lluvia(por hora) Nubes
00:00 26.7 °C 16.0 °C 1016.1 hPa WNW 3.9 km/h 7.4 km/h 52% 0.0 mm CLR
00:05 26.6 °C 16.2 °C 1016.2 hPa NW 3.9 km/h 7.4 km/h 53% 0.0 mm CLR
00:10 26.4 °C 16.1 °C 1016.2 hPa WNW 4.7 km/h 7.4 km/h 53% 0.0 mm CLR
00:15 26.4 °C 16.1 °C 1016.2 hPa WNW 4.7 km/h 3.7 km/h 53% 0.0 mm CLR
00:20 26.4 °C 16.3 °C 1016.2 hPa WNW 2.3 km/h 3.2 km/h 54% 0.0 mm CLR
00:25 26.4 °C 16.3 °C 1016.2 hPa NNW 2.3 km/h 7.4 km/h 54% 0.0 mm CLR
00:30 26.4 °C 16.3 °C 1016.2 hPa NE 3.2 km/h 7.4 km/h 54% 0.0 mm CLR
00:35 26.3 °C 16.2 °C 1016.4 hPa NE 3.2 km/h 11.1 km/h 54% 0.0 mm CLR
00:40 26.3 °C 16.6 °C 1016.4 hPa NE 5.8 km/h 9.3 km/h 55% 0.0 mm CLR
00:45 26.2 °C 16.7 °C 1016.4 hPa NE 5.8 km/h 7.4 km/h 56% 0.0 mm CLR
00:50 26.1 °C 16.6 °C 1016.4 hPa NE 4.7 km/h 3.2 km/h 56% 0.0 mm CLR
00:55 25.9 °C 16.7 °C 1016.4 hPa NE 4.7 km/h 3.7 km/h 57% 0.0 mm CLR
01:00 25.9 °C 16.7 °C 1016.4 hPa Calm     57% 0.0 mm CLR
01:05 25.8 °C 16.6 °C 1016.3 hPa Calm     57% 0.0 mm CLR
01:10 25.7 °C 16.8 °C 1016.3 hPa Calm     58% 0.0 mm CLR
01:15 25.7 °C 16.8 °C 1016.3 hPa Calm     58% 0.0 mm CLR
01:20 25.6 °C 16.7 °C 1016.4 hPa Calm     58% 0.0 mm CLR
01:25 25.6 °C 17.0 °C 1016.4 hPa Calm     59% 0.0 mm CLR
01:30 25.6 °C 17.0 °C 1016.4 hPa Calm     59% 0.0 mm CLR
01:35 25.6 °C 17.0 °C 1016.4 hPa Calm     59% 0.0 mm CLR
01:40 25.6 °C 17.0 °C 1016.4 hPa Calm     59% 0.0 mm CLR
01:45 25.5 °C 16.9 °C 1016.4 hPa Calm     59% 0.0 mm CLR
01:50 25.5 °C 16.9 °C 1016.4 hPa Calm     59% 0.0 mm CLR
01:55 25.4 °C 16.8 °C 1016.4 hPa Calm     59% 0.0 mm CLR
02:00 25.3 °C 16.7 °C 1016.4 hPa Calm     59% 0.0 mm CLR
02:05 25.3 °C 17.0 °C 1016.3 hPa Calm     60% 0.0 mm CLR
02:10 25.2 °C 16.9 °C 1016.3 hPa Calm     60% 0.0 mm CLR
02:15 25.2 °C 16.9 °C 1016.3 hPa Calm     60% 0.0 mm CLR
02:20 25.2 °C 16.9 °C 1016.3 hPa Calm     60% 0.0 mm CLR
02:25 25.2 °C 16.9 °C 1016.3 hPa Calm     60% 0.0 mm CLR
02:30 25.2 °C 17.2 °C 1016.3 hPa Calm     61% 0.0 mm CLR
02:35 25.2 °C 17.2 °C 1016.2 hPa Calm   5.6 km/h 61% 0.0 mm CLR
02:40 25.1 °C 17.1 °C 1016.2 hPa Calm     61% 0.0 mm CLR
02:45 25.1 °C 17.1 °C 1016.2 hPa Calm     61% 0.0 mm CLR
02:50 25.1 °C 17.1 °C 1016.2 hPa Calm     61% 0.0 mm CLR
02:55 25.2 °C 16.9 °C 1016.2 hPa Calm     60% 0.0 mm CLR
03:00 25.2 °C 16.9 °C 1016.2 hPa Calm     60% 0.0 mm CLR
03:05 25.2 °C 16.9 °C 1016.0 hPa Calm     60% 0.0 mm CLR
03:10 25.2 °C 16.6 °C 1016.0 hPa Calm     59% 0.0 mm CLR
03:15 25.1 °C 16.8 °C 1016.0 hPa Calm     60% 0.0 mm CLR
03:20 25.0 °C 16.9 °C 1016.0 hPa Calm     61% 0.0 mm CLR
03:25 24.9 °C 16.8 °C 1016.0 hPa Calm     61% 0.0 mm CLR
03:30 24.8 °C 16.8 °C 1016.0 hPa Calm     61% 0.0 mm CLR
03:35 24.7 °C 16.7 °C 1015.8 hPa Calm     61% 0.0 mm CLR
03:40 24.6 °C 16.6 °C 1015.8 hPa Calm     61% 0.0 mm CLR
03:45 24.6 °C 16.6 °C 1015.8 hPa Calm     61% 0.0 mm CLR
03:50 24.6 °C 16.1 °C 1015.7 hPa Calm     59% 0.0 mm CLR
03:55 24.6 °C 16.1 °C 1015.7 hPa Calm   3.7 km/h 59% 0.0 mm CLR
04:00 24.6 °C 16.3 °C 1015.7 hPa SSE 2.3 km/h   60% 0.0 mm CLR
04:05 24.5 °C 16.7 °C 1015.6 hPa SSE 2.3 km/h   62% 0.0 mm CLR
04:10 24.4 °C 16.7 °C 1015.6 hPa Calm     62% 0.0 mm CLR
04:15 24.2 °C 16.4 °C 1015.6 hPa Calm     62% 0.0 mm CLR
04:20 24.1 °C 16.6 °C 1015.6 hPa Calm     63% 0.0 mm CLR
04:25 24.0 °C 16.5 °C 1015.6 hPa Calm     63% 0.0 mm CLR
04:30 23.9 °C 16.4 °C 1015.6 hPa Calm     63% 0.0 mm CLR
04:35 23.9 °C 16.4 °C 1015.5 hPa Calm     63% 0.0 mm CLR
04:40 23.9 °C 16.2 °C 1015.5 hPa Calm     62% 0.0 mm CLR
04:45 23.9 °C 15.9 °C 1015.5 hPa Calm   2.3 km/h 61% 0.0 mm CLR
04:50 23.8 °C 16.1 °C 1015.4 hPa SSE 2.3 km/h 7.4 km/h 62% 0.0 mm CLR
04:55 23.7 °C 15.7 °C 1015.4 hPa SSE 2.3 km/h 10.3 km/h 61% 0.0 mm CLR
05:00 23.5 °C 15.6 °C 1015.4 hPa SSE 6.4 km/h 11.1 km/h 61% 0.0 mm CLR
05:05 23.4 °C 15.7 °C 1015.3 hPa SSE 6.4 km/h 9.3 km/h 62% 0.0 mm CLR
05:10 23.3 °C 15.6 °C 1015.3 hPa SSE 7.6 km/h 7.4 km/h 62% 0.0 mm CLR
05:15 23.3 °C 15.6 °C 1015.3 hPa SSE 7.6 km/h 9.3 km/h 62% 0.0 mm CLR
05:20 23.3 °C 15.6 °C 1015.4 hPa SSE 6.4 km/h 8.4 km/h 62% 0.0 mm CLR
05:25 23.3 °C 15.6 °C 1015.4 hPa SSW 6.4 km/h 10.0 km/h 62% 0.0 mm CLR
05:30 23.3 °C 15.6 °C 1015.4 hPa SW 6.4 km/h 9.3 km/h 62% 0.0 mm CLR
05:35 23.4 °C 15.4 °C 1015.3 hPa SE 6.4 km/h 5.6 km/h 61% 0.0 mm CLR
05:40 23.3 °C 15.3 °C 1015.3 hPa SSE 5.8 km/h 7.6 km/h 61% 0.0 mm CLR
05:45 23.2 °C 15.5 °C 1015.3 hPa SSW 5.8 km/h 9.3 km/h 62% 0.0 mm CLR
05:50 23.2 °C 15.3 °C 1015.3 hPa SSW 6.4 km/h 7.4 km/h 61% 0.0 mm CLR
05:55 23.2 °C 15.3 °C 1015.3 hPa SSW 6.4 km/h 5.6 km/h 61% 0.0 mm CLR
06:00 23.2 °C 15.3 °C 1015.3 hPa ESE 3.9 km/h 9.3 km/h 61% 0.0 mm CLR
06:05 23.1 °C 15.4 °C 1015.3 hPa South 3.9 km/h 7.4 km/h 62% 0.0 mm CLR
06:10 23.0 °C 15.1 °C 1015.3 hPa SSW 5.8 km/h 7.4 km/h 61% 0.0 mm CLR
06:15 23.1 °C 15.2 °C 1015.3 hPa SSW 5.8 km/h 7.4 km/h 61% 0.0 mm CLR
06:20 23.1 °C 15.2 °C 1015.4 hPa South 5.8 km/h 7.4 km/h 61% 0.0 mm CLR
06:25 23.2 °C 15.3 °C 1015.4 hPa South 5.8 km/h 5.8 km/h 61% 0.0 mm CLR
06:30 23.2 °C 15.0 °C 1015.4 hPa SW 3.9 km/h 9.3 km/h 60% 0.0 mm CLR
06:35 23.3 °C 15.1 °C 1015.4 hPa South 3.9 km/h 7.6 km/h 60% 0.0 mm CLR
06:40 23.3 °C 15.1 °C 1015.4 hPa SSW 5.0 km/h 5.6 km/h 60% 0.0 mm CLR
06:45 23.3 °C 15.1 °C 1015.4 hPa SSW 5.0 km/h 7.6 km/h 60% 0.0 mm CLR
06:50 23.4 °C 14.9 °C 1015.5 hPa SSE 5.0 km/h 8.4 km/h 59% 0.0 mm CLR
06:55 23.4 °C 14.9 °C 1015.5 hPa SSW 5.0 km/h 9.3 km/h 59% 0.0 mm CLR
07:00 23.4 °C 14.9 °C 1015.5 hPa SSW 6.9 km/h 13.0 km/h 59% 0.0 mm CLR
07:05 23.4 °C 14.9 °C 1015.4 hPa SSW 6.9 km/h 9.3 km/h 59% 0.0 mm CLR
07:10 23.4 °C 14.9 °C 1015.4 hPa SSW 8.4 km/h 11.1 km/h 59% 0.0 mm CLR
07:15 23.3 °C 14.8 °C 1015.4 hPa SW 8.4 km/h 13.0 km/h 59% 0.0 mm CLR
07:20 23.3 °C 14.8 °C 1015.5 hPa SSW 8.4 km/h 11.1 km/h 59% 0.0 mm CLR
07:25 23.4 °C 14.9 °C 1015.5 hPa SSW 8.4 km/h 9.3 km/h 59% 0.0 mm CLR
07:30 23.4 °C 14.9 °C 1015.5 hPa South 6.9 km/h 9.3 km/h 59% 0.0 mm CLR
07:35 23.4 °C 14.9 °C 1015.6 hPa SW 6.9 km/h 9.3 km/h 59% 0.0 mm CLR
07:40 23.4 °C 14.9 °C 1015.6 hPa WSW 7.6 km/h 9.3 km/h 59% 0.0 mm CLR
07:45 23.5 °C 15.0 °C 1015.6 hPa SW 7.6 km/h 11.1 km/h 59% 0.0 mm CLR
07:50 23.6 °C 15.1 °C 1015.6 hPa SW 6.4 km/h 13.0 km/h 59% 0.0 mm CLR
07:55 23.6 °C 15.1 °C 1015.6 hPa SW 6.4 km/h 16.7 km/h 59% 0.0 mm CLR
08:00 23.6 °C 14.8 °C 1015.6 hPa SW 8.4 km/h 14.8 km/h 58% 0.0 mm CLR
08:05 23.7 °C 14.9 °C 1015.6 hPa SW 8.4 km/h 13.0 km/h 58% 0.0 mm CLR
08:10 23.8 °C 15.1 °C 1015.6 hPa SW 7.6 km/h 11.1 km/h 58% 0.0 mm CLR
08:15 23.9 °C 14.9 °C 1015.6 hPa WSW 7.6 km/h 11.1 km/h 57% 0.0 mm CLR
08:20 24.1 °C 15.1 °C 1015.7 hPa SW 7.6 km/h 11.1 km/h 57% 0.0 mm CLR
08:25 24.2 °C 15.2 °C 1015.7 hPa WSW 7.6 km/h 9.3 km/h 57% 0.0 mm CLR
08:30 24.3 °C 14.9 °C 1015.7 hPa South 7.6 km/h 11.1 km/h 56% 0.0 mm CLR
08:35 24.4 °C 15.1 °C 1015.6 hPa SSW 7.6 km/h 8.4 km/h 56% 0.0 mm CLR
08:40 24.6 °C 14.9 °C 1015.6 hPa WSW 5.8 km/h 11.1 km/h 55% 0.0 mm CLR
08:45 24.7 °C 15.1 °C 1015.6 hPa WSW 5.8 km/h 9.3 km/h 55% 0.0 mm CLR
08:50 24.8 °C 15.2 °C 1015.7 hPa SSW 6.9 km/h 13.0 km/h 55% 0.0 mm CLR
08:55 24.9 °C 15.2 °C 1015.7 hPa SW 6.9 km/h 11.1 km/h 55% 0.0 mm CLR
09:00 25.1 °C 15.1 °C 1015.7 hPa SSW 7.6 km/h 9.3 km/h 54% 0.0 mm CLR
09:05 25.2 °C 14.9 °C 1015.7 hPa SW 7.6 km/h 11.1 km/h 53% 0.0 mm CLR
09:10 25.3 °C 15.1 °C 1015.7 hPa SW 6.9 km/h 9.3 km/h 53% 0.0 mm CLR
09:15 25.4 °C 15.1 °C 1015.7 hPa WSW 6.9 km/h 5.6 km/h 53% 0.0 mm CLR
09:20 25.7 °C 15.1 °C 1015.7 hPa SSW 5.0 km/h 13.0 km/h 52% 0.0 mm CLR
09:25 25.8 °C 15.2 °C 1015.7 hPa SW 5.0 km/h 7.4 km/h 52% 0.0 mm CLR
09:30 25.9 °C 15.0 °C 1015.7 hPa SW 5.8 km/h 9.3 km/h 51% 0.0 mm CLR
09:35 26.0 °C 15.1 °C 1015.7 hPa South 5.8 km/h 9.3 km/h 51% 0.0 mm CLR
09:40 26.2 °C 15.3 °C 1015.7 hPa SW 6.4 km/h 7.4 km/h 51% 0.0 mm CLR
09:45 26.3 °C 15.3 °C 1015.7 hPa WSW 6.4 km/h 5.0 km/h 51% 0.0 mm CLR
09:50 26.4 °C 15.1 °C 1015.6 hPa South 5.8 km/h 6.9 km/h 50% 0.0 mm CLR
09:55 26.7 °C 15.4 °C 1015.6 hPa South 5.8 km/h 13.0 km/h 50% 0.0 mm CLR
10:00 26.8 °C 15.5 °C 1015.6 hPa South 5.8 km/h 9.3 km/h 50% 0.0 mm CLR
10:05 26.9 °C 15.3 °C 1015.5 hPa SW 5.8 km/h 7.4 km/h 49% 0.0 mm CLR
10:10 27.1 °C 15.4 °C 1015.5 hPa SSW 5.8 km/h 9.3 km/h 49% 0.0 mm CLR
10:15 27.3 °C 15.7 °C 1015.5 hPa SSW 5.8 km/h 5.6 km/h 49% 0.0 mm CLR
10:20 27.6 °C 15.6 °C 1015.5 hPa SW 3.9 km/h 7.4 km/h 48% 0.0 mm CLR
10:25 27.8 °C 15.8 °C 1015.5 hPa SW 3.9 km/h 7.4 km/h 48% 0.0 mm CLR
10:30 28.1 °C 15.7 °C 1015.5 hPa SSW 4.7 km/h 8.7 km/h 47% 0.0 mm CLR
10:35 28.5 °C 15.8 °C 1015.3 hPa SW 4.7 km/h 9.3 km/h 46% 0.0 mm CLR
10:40 28.6 °C 15.8 °C 1015.3 hPa West 4.7 km/h 5.6 km/h 46% 0.0 mm CLR
10:45 28.8 °C 15.7 °C 1015.3 hPa South 4.7 km/h 7.4 km/h 45% 0.0 mm CLR
10:50 28.9 °C 15.8 °C 1015.3 hPa SSW 3.9 km/h 5.6 km/h 45% 0.0 mm CLR
10:55 29.1 °C 15.9 °C 1015.3 hPa SSE 3.9 km/h 11.1 km/h 45% 0.0 mm CLR
11:00 29.1 °C 15.6 °C 1015.3 hPa SW 6.4 km/h 9.3 km/h 44% 0.0 mm CLR
11:05 29.2 °C 15.7 °C 1015.2 hPa SE 6.4 km/h 7.4 km/h 44% 0.0 mm CLR
11:10 29.4 °C 15.5 °C 1015.2 hPa SW 5.8 km/h 7.4 km/h 43% 0.0 mm CLR
11:15 29.8 °C 15.5 °C 1015.2 hPa SSW 5.8 km/h 5.6 km/h 42% 0.0 mm CLR
11:20 30.1 °C 15.4 °C 1015.1 hPa WNW 3.9 km/h 7.4 km/h 41% 0.0 mm CLR
11:25 30.3 °C 14.8 °C 1015.1 hPa NNE 3.9 km/h 11.1 km/h 39% 0.0 mm CLR
11:30 30.5 °C 15.0 °C 1015.1 hPa ENE 5.0 km/h 9.3 km/h 39% 0.0 mm CLR
11:35 30.6 °C 14.7 °C 1015.2 hPa ENE 5.0 km/h 11.1 km/h 38% 0.0 mm CLR
11:40 30.6 °C 15.1 °C 1015.2 hPa ENE 6.9 km/h 13.0 km/h 39% 0.0 mm CLR
11:45 30.7 °C 14.8 °C 1015.2 hPa NE 6.9 km/h 9.3 km/h 38% 0.0 mm CLR
11:50 30.8 °C 14.8 °C 1015.0 hPa NE 6.4 km/h 11.1 km/h 38% 0.0 mm CLR
11:55 31.2 °C 14.8 °C 1015.0 hPa East 6.4 km/h 5.6 km/h 37% 0.0 mm CLR
12:00 31.5 °C 14.6 °C 1015.0 hPa NNW 4.7 km/h 9.5 km/h 36% 0.0 mm CLR
12:05 31.5 °C 14.2 °C 1015.0 hPa NE 4.7 km/h 13.0 km/h 35% 0.0 mm CLR
12:10 31.4 °C 14.1 °C 1015.0 hPa NE 8.4 km/h 7.6 km/h 35% 0.0 mm CLR
12:15 31.4 °C 14.6 °C 1015.0 hPa ENE 8.4 km/h 14.8 km/h 36% 0.0 mm CLR
12:20 31.4 °C 14.6 °C 1014.9 hPa NE 8.4 km/h 11.1 km/h 36% 0.0 mm CLR
12:25 31.6 °C 14.7 °C 1014.9 hPa ESE 8.4 km/h 9.3 km/h 36% 0.0 mm CLR
12:30 31.9 °C 14.6 °C 1014.9 hPa NW 5.8 km/h 7.4 km/h 35% 0.0 mm CLR
12:35 31.9 °C 13.6 °C 1014.9 hPa East 5.8 km/h 7.4 km/h 33% 0.0 mm CLR
12:40 32.0 °C 13.7 °C 1014.9 hPa NNE 7.6 km/h 18.5 km/h 33% 0.0 mm CLR
12:45 32.1 °C 14.3 °C 1014.9 hPa North 7.6 km/h 16.7 km/h 34% 0.0 mm CLR
12:50 32.1 °C 14.3 °C 1014.7 hPa NE 10.0 km/h 13.7 km/h 34% 0.0 mm CLR
12:55 32.3 °C 14.0 °C 1014.7 hPa ENE 10.0 km/h 18.5 km/h 33% 0.0 mm CLR
13:00 32.4 °C 14.5 °C 1014.7 hPa NE 9.5 km/h 14.8 km/h 34% 0.0 mm CLR
13:05 32.3 °C 14.4 °C 1014.6 hPa NNE 9.5 km/h 14.8 km/h 34% 0.0 mm CLR
13:10 32.3 °C 14.4 °C 1014.6 hPa ENE 10.0 km/h 14.8 km/h 34% 0.0 mm CLR
13:15 32.6 °C 14.7 °C 1014.6 hPa NE 10.0 km/h 22.2 km/h 34% 0.0 mm CLR
13:20 32.8 °C 14.9 °C 1014.4 hPa NE 10.3 km/h 18.5 km/h 34% 0.0 mm CLR
13:25 32.9 °C 14.9 °C 1014.4 hPa NE 10.3 km/h 9.5 km/h 34% 0.0 mm CLR
13:30 33.1 °C 15.1 °C 1014.4 hPa NE 9.5 km/h 20.4 km/h 34% 0.0 mm CLR
13:35 33.0 °C 15.1 °C 1014.4 hPa East 9.5 km/h 9.3 km/h 34% 0.0 mm CLR
13:40 33.1 °C 15.1 °C 1014.4 hPa ENE 10.3 km/h 16.7 km/h 34% 0.0 mm CLR
13:45 33.2 °C 15.2 °C 1014.4 hPa NE 10.3 km/h 16.7 km/h 34% 0.0 mm CLR
13:50 33.3 °C 14.8 °C 1014.2 hPa NE 10.3 km/h 14.8 km/h 33% 0.0 mm CLR
13:55 33.3 °C 15.3 °C 1014.2 hPa North 10.3 km/h 14.8 km/h 34% 0.0 mm CLR
14:00 33.4 °C 14.4 °C 1014.2 hPa NE 12.2 km/h 24.1 km/h 32% 0.0 mm CLR
14:05 33.5 °C 14.1 °C 1014.1 hPa NNE 12.2 km/h 27.8 km/h 31% 0.0 mm CLR
14:10 33.3 °C 13.4 °C 1014.1 hPa NNE 16.4 km/h 27.8 km/h 30% 0.0 mm CLR
14:15 33.4 °C 13.9 °C 1014.1 hPa ENE 16.4 km/h 22.2 km/h 31% 0.0 mm CLR
14:20 33.8 °C 14.3 °C 1013.9 hPa NNW 13.7 km/h 25.9 km/h 31% 0.0 mm CLR
14:25 33.9 °C 13.9 °C 1013.9 hPa ESE 13.7 km/h 20.4 km/h 30% 0.0 mm CLR
14:30 34.0 °C 14.0 °C 1013.9 hPa NNE 13.7 km/h 28.2 km/h 30% 0.0 mm CLR
14:35 33.8 °C 14.3 °C 1013.9 hPa NE 13.7 km/h 20.4 km/h 31% 0.0 mm CLR
14:40 33.8 °C 13.8 °C 1013.9 hPa East 14.8 km/h 24.1 km/h 30% 0.0 mm CLR
14:45 33.9 °C 13.9 °C 1013.9 hPa East 14.8 km/h 24.1 km/h 30% 0.0 mm CLR
14:50 33.9 °C 13.9 °C 1013.8 hPa ENE 14.8 km/h 24.1 km/h 30% 0.0 mm CLR
14:55 34.0 °C 14.0 °C 1013.8 hPa ENE 14.8 km/h 18.5 km/h 30% 0.0 mm CLR
15:00 33.8 °C 13.3 °C 1013.8 hPa ENE 14.0 km/h 27.8 km/h 29% 0.0 mm CLR
15:05 34.0 °C 13.4 °C 1013.7 hPa East 14.0 km/h 20.4 km/h 29% 0.0 mm CLR
15:10 34.2 °C 13.6 °C 1013.7 hPa NE 11.1 km/h 24.1 km/h 29% 0.0 mm CLR
15:15 34.2 °C 12.6 °C 1013.7 hPa ENE 11.1 km/h 25.9 km/h 27% 0.0 mm CLR
15:20 33.9 °C 13.4 °C 1013.7 hPa NE 14.8 km/h 24.1 km/h 29% 0.0 mm CLR
15:25 34.1 °C 13.6 °C 1013.7 hPa NNE 14.8 km/h 24.1 km/h 29% 0.0 mm CLR
15:30 34.1 °C 13.6 °C 1013.7 hPa ENE 14.0 km/h 16.7 km/h 29% 0.0 mm CLR
15:35 34.1 °C 12.4 °C 1013.6 hPa NNE 14.0 km/h 24.1 km/h 27% 0.0 mm CLR
15:40 34.0 °C 13.4 °C 1013.6 hPa NNE 14.0 km/h 24.1 km/h 29% 0.0 mm CLR
15:45 34.1 °C 13.0 °C 1013.6 hPa NE 14.0 km/h 21.7 km/h 28% 0.0 mm CLR
15:50 34.1 °C 13.0 °C 1013.5 hPa NE 14.8 km/h 22.2 km/h 28% 0.0 mm CLR
15:55 34.0 °C 12.9 °C 1013.5 hPa East 14.8 km/h 19.8 km/h 28% 0.0 mm CLR
16:00 34.3 °C 13.2 °C 1013.5 hPa East 16.1 km/h 27.8 km/h 28% 0.0 mm CLR
16:05 34.2 °C 13.1 °C 1013.3 hPa NE 16.1 km/h 27.8 km/h 28% 0.0 mm CLR
16:10 34.2 °C 13.6 °C 1013.3 hPa ENE 16.4 km/h 31.5 km/h 29% 0.0 mm CLR
16:15 34.0 °C 13.4 °C 1013.3 hPa NNE 16.4 km/h 27.8 km/h 29% 0.0 mm CLR
16:20 34.2 °C 13.6 °C 1013.4 hPa ENE 18.0 km/h 16.7 km/h 29% 0.0 mm CLR
16:25 34.2 °C 13.6 °C 1013.4 hPa NE 18.0 km/h 25.6 km/h 29% 0.0 mm CLR
16:30 34.1 °C 13.6 °C 1013.4 hPa NNE 14.8 km/h 22.2 km/h 29% 0.0 mm CLR
16:35 34.1 °C 13.6 °C 1013.2 hPa NE 14.8 km/h 29.6 km/h 29% 0.0 mm CLR
16:40 33.9 °C 13.9 °C 1013.2 hPa NE 16.4 km/h 27.8 km/h 30% 0.0 mm CLR
16:45 33.9 °C 13.9 °C 1013.2 hPa ENE 16.4 km/h 20.4 km/h 30% 0.0 mm CLR
16:50 33.8 °C 13.8 °C 1013.2 hPa ENE 14.8 km/h 24.1 km/h 30% 0.0 mm CLR
16:55 33.7 °C 14.2 °C 1013.2 hPa NNE 14.8 km/h 22.2 km/h 31% 0.0 mm CLR
17:00 33.8 °C 13.8 °C 1013.2 hPa NE 14.0 km/h 25.6 km/h 30% 0.0 mm CLR
17:05 33.6 °C 14.1 °C 1013.2 hPa NNE 14.0 km/h 27.8 km/h 31% 0.0 mm CLR
17:10 33.6 °C 14.6 °C 1013.2 hPa NE 17.2 km/h 25.6 km/h 32% 0.0 mm CLR
17:15 33.6 °C 14.1 °C 1013.2 hPa East 17.2 km/h 24.1 km/h 31% 0.0 mm CLR
17:20 33.7 °C 14.7 °C 1013.2 hPa NE 14.8 km/h 14.8 km/h 32% 0.0 mm CLR
17:25 33.7 °C 14.7 °C 1013.2 hPa East 14.8 km/h 16.7 km/h 32% 0.0 mm CLR
17:30 33.7 °C 14.2 °C 1013.2 hPa ENE 11.9 km/h 20.4 km/h 31% 0.0 mm CLR
17:35 33.7 °C 14.2 °C 1013.0 hPa East 11.9 km/h 24.1 km/h 31% 0.0 mm CLR
17:40 33.4 °C 14.4 °C 1013.0 hPa ENE 14.0 km/h 21.7 km/h 32% 0.0 mm CLR
17:45 33.3 °C 14.4 °C 1013.0 hPa NE 14.0 km/h 18.0 km/h 32% 0.0 mm CLR
17:50 33.6 °C 14.6 °C 1012.9 hPa North 14.0 km/h 22.2 km/h 32% 0.0 mm CLR
17:55 33.4 °C 14.9 °C 1012.9 hPa ENE 14.0 km/h 18.5 km/h 33% 0.0 mm CLR
18:00 33.4 °C 14.4 °C 1012.9 hPa East 15.6 km/h 25.9 km/h 32% 0.0 mm CLR
18:05 33.5 °C 14.6 °C 1012.9 hPa East 15.6 km/h 16.7 km/h 32% 0.0 mm CLR
18:10 33.5 °C 14.6 °C 1012.9 hPa East 12.2 km/h 25.9 km/h 32% 0.0 mm CLR
18:15 33.4 °C 14.4 °C 1012.9 hPa NE 12.2 km/h 24.5 km/h 32% 0.0 mm CLR
18:20 33.3 °C 14.4 °C 1012.9 hPa NE 14.0 km/h 18.5 km/h 32% 0.0 mm CLR
18:25 33.3 °C 13.9 °C 1012.9 hPa NE 14.0 km/h 24.1 km/h 31% 0.0 mm CLR
18:30 33.3 °C 14.4 °C 1012.9 hPa NE 13.0 km/h 25.9 km/h 32% 0.0 mm CLR
18:35 33.3 °C 14.4 °C 1012.9 hPa NE 13.0 km/h 20.4 km/h 32% 0.0 mm CLR
18:40 33.3 °C 14.4 °C 1012.9 hPa NE 13.0 km/h 16.7 km/h 32% 0.0 mm CLR
18:45 33.4 °C 13.9 °C 1012.9 hPa ENE 13.0 km/h 14.8 km/h 31% 0.0 mm CLR
18:50 33.2 °C 14.3 °C 1012.8 hPa NE 12.2 km/h 13.7 km/h 32% 0.0 mm CLR
18:55 33.1 °C 13.7 °C 1012.8 hPa East 12.2 km/h 22.2 km/h 31% 0.0 mm CLR
19:00 33.0 °C 14.1 °C 1012.8 hPa North 14.0 km/h 16.7 km/h 32% 0.0 mm CLR
19:05 33.0 °C 13.6 °C 1012.8 hPa NE 14.0 km/h 17.2 km/h 31% 0.0 mm CLR
19:10 32.9 °C 13.6 °C 1012.8 hPa ESE 12.2 km/h 16.7 km/h 31% 0.0 mm CLR
19:15 33.0 °C 13.6 °C 1012.8 hPa ENE 12.2 km/h 13.0 km/h 31% 0.0 mm CLR
19:20 32.8 °C 13.4 °C 1012.8 hPa NE 12.2 km/h 24.1 km/h 31% 0.0 mm CLR
19:25 32.8 °C 13.4 °C 1012.8 hPa NE 12.2 km/h 27.8 km/h 31% 0.0 mm CLR
19:30 32.7 °C 13.8 °C 1012.8 hPa ENE 16.1 km/h 24.1 km/h 32% 0.0 mm CLR
19:35 32.6 °C 14.2 °C 1012.7 hPa NNE 16.1 km/h 22.2 km/h 33% 0.0 mm CLR
19:40 32.5 °C 14.2 °C 1012.7 hPa NNE 15.6 km/h 16.7 km/h 33% 0.0 mm CLR
19:45 32.6 °C 14.7 °C 1012.7 hPa ENE 15.6 km/h 13.0 km/h 34% 0.0 mm CLR
19:50 32.4 °C 14.5 °C 1012.8 hPa NE 12.2 km/h 27.8 km/h 34% 0.0 mm CLR
19:55 32.2 °C 14.3 °C 1012.8 hPa NE 12.2 km/h 18.5 km/h 34% 0.0 mm CLR
20:00 32.2 °C 14.8 °C 1012.8 hPa NE 13.7 km/h 20.1 km/h 35% 0.0 mm CLR
20:05 32.1 °C 15.2 °C 1012.8 hPa NE 13.7 km/h 20.4 km/h 36% 0.0 mm CLR
20:10 31.9 °C 15.0 °C 1012.8 hPa NE 14.0 km/h 22.2 km/h 36% 0.0 mm CLR
20:15 31.8 °C 15.3 °C 1012.8 hPa NE 14.0 km/h 20.4 km/h 37% 0.0 mm CLR
20:20 31.6 °C 15.6 °C 1012.9 hPa NE 14.0 km/h 20.4 km/h 38% 0.0 mm CLR
20:25 31.4 °C 15.4 °C 1012.9 hPa NE 14.0 km/h 22.5 km/h 38% 0.0 mm CLR
20:30 31.2 °C 15.6 °C 1012.9 hPa ENE 14.8 km/h 27.8 km/h 39% 0.0 mm CLR
20:35 30.9 °C 15.7 °C 1013.0 hPa NE 14.8 km/h 20.1 km/h 40% 0.0 mm CLR
20:40 30.7 °C 15.6 °C 1013.0 hPa ENE 15.6 km/h 16.7 km/h 40% 0.0 mm CLR
20:45 30.6 °C 15.8 °C 1013.0 hPa NE 15.6 km/h 14.8 km/h 41% 0.0 mm CLR
20:50 30.4 °C 15.7 °C 1013.1 hPa NE 12.2 km/h 16.7 km/h 41% 0.0 mm CLR
20:55 30.3 °C 15.6 °C 1013.1 hPa ENE 12.2 km/h 14.8 km/h 41% 0.0 mm CLR
21:00 30.1 °C 15.4 °C 1013.1 hPa NE 12.2 km/h 14.8 km/h 41% 0.0 mm CLR
21:05 29.9 °C 15.6 °C 1013.2 hPa NE 12.2 km/h 20.9 km/h 42% 0.0 mm CLR
21:10 29.8 °C 15.1 °C 1013.2 hPa NE 13.0 km/h 18.5 km/h 41% 0.0 mm CLR
21:15 29.7 °C 15.1 °C 1013.2 hPa ENE 13.0 km/h 18.5 km/h 41% 0.0 mm CLR
21:20 29.6 °C 15.3 °C 1013.3 hPa ENE 11.9 km/h 14.8 km/h 42% 0.0 mm CLR
21:25 29.4 °C 15.2 °C 1013.3 hPa ENE 11.9 km/h 13.0 km/h 42% 0.0 mm CLR
21:30 29.3 °C 15.4 °C 1013.3 hPa NE 10.3 km/h 14.8 km/h 43% 0.0 mm CLR
21:35 29.2 °C 15.3 °C 1013.4 hPa NNE 10.3 km/h 14.8 km/h 43% 0.0 mm CLR
21:40 29.1 °C 15.6 °C 1013.4 hPa NE 11.1 km/h 14.8 km/h 44% 0.0 mm CLR
21:45 28.9 °C 15.4 °C 1013.4 hPa ENE 11.1 km/h 14.8 km/h 44% 0.0 mm CLR
21:50 28.8 °C 15.7 °C 1013.6 hPa NNE 10.3 km/h 14.8 km/h 45% 0.0 mm CLR
21:55 28.7 °C 15.6 °C 1013.6 hPa NE 10.3 km/h 16.7 km/h 45% 0.0 mm CLR
22:00 28.6 °C 15.8 °C 1013.6 hPa NE 10.0 km/h 13.0 km/h 46% 0.0 mm CLR
22:05 28.4 °C 15.7 °C 1013.7 hPa NNE 10.0 km/h 13.0 km/h 46% 0.0 mm CLR
22:10 28.3 °C 15.9 °C 1013.7 hPa NE 8.7 km/h 11.9 km/h 47% 0.0 mm CLR
22:15 28.1 °C 15.7 °C 1013.7 hPa NE 8.7 km/h 11.1 km/h 47% 0.0 mm CLR
22:20 27.9 °C 15.9 °C 1013.9 hPa NNE 10.0 km/h 14.8 km/h 48% 0.0 mm CLR
22:25 27.8 °C 15.8 °C 1013.9 hPa NE 10.0 km/h 11.1 km/h 48% 0.0 mm CLR
22:30 27.8 °C 16.1 °C 1013.9 hPa NE 9.5 km/h 13.0 km/h 49% 0.0 mm CLR
22:35 27.7 °C 16.0 °C 1014.1 hPa NNE 9.5 km/h 9.3 km/h 49% 0.0 mm CLR
22:40 27.7 °C 16.0 °C 1014.1 hPa East 8.7 km/h 11.1 km/h 49% 0.0 mm CLR
22:45 27.7 °C 16.0 °C 1014.1 hPa ENE 8.7 km/h 11.1 km/h 49% 0.0 mm CLR
22:50 27.6 °C 15.9 °C 1014.2 hPa NE 8.4 km/h 9.3 km/h 49% 0.0 mm CLR
22:55 27.6 °C 15.9 °C 1014.2 hPa NE 8.4 km/h 9.5 km/h 49% 0.0 mm CLR
23:00 27.6 °C 16.2 °C 1014.2 hPa NNE 7.6 km/h 11.9 km/h 50% 0.0 mm CLR
23:05 27.5 °C 16.2 °C 1014.2 hPa NE 7.6 km/h 11.1 km/h 50% 0.0 mm CLR
23:10 27.5 °C 16.2 °C 1014.2 hPa ENE 7.6 km/h 9.3 km/h 50% 0.0 mm CLR
23:15 27.5 °C 16.2 °C 1014.2 hPa NE 7.6 km/h 9.3 km/h 50% 0.0 mm CLR
23:20 27.5 °C 16.2 °C 1014.4 hPa NNE 5.0 km/h 5.8 km/h 50% 0.0 mm CLR
23:25 27.4 °C 16.1 °C 1014.4 hPa NNE 5.0 km/h 5.6 km/h 50% 0.0 mm CLR
23:30 27.2 °C 16.2 °C 1014.4 hPa NNE 3.2 km/h 7.4 km/h 51% 0.0 mm CLR
23:35 27.1 °C 16.1 °C 1014.4 hPa NE 3.2 km/h 1.9 km/h 51% 0.0 mm CLR
23:40 27.0 °C 16.0 °C 1014.4 hPa NE 2.9 km/h 3.7 km/h 51% 0.0 mm CLR
23:45 26.9 °C 16.2 °C 1014.4 hPa NE 2.9 km/h   52% 0.0 mm CLR
23:50 26.8 °C 16.1 °C 1014.4 hPa NE 2.3 km/h 3.7 km/h 52% 0.0 mm CLR
23:55 26.7 °C 16.3 °C 1014.4 hPa NE 2.3 km/h 3.7 km/h 53% 0.0 mm CLR
Murcia-Puente Tocinos, España
Compliments of Weather Underground - 2.75 mb

La estación de MeteoMurcia.com, publica sus datos en los siguientes proyectos:

Weather Underground PWS IMURCIAP2 Meteoclimatic www.awekas.at

W3Counter
Web Analytics